Location: Kolin
(50.0330°N, 15.2000°E)
Time: 19:52:39
(UTC+01:00)

ISS - Pass Details

Date: 25 November 2019
Orbit: 411 x 421 km, 51.6° (Epoch: 07 December)

Event Time Altitude Azimuth Distance (km) Brightness Sun altitude
Rises 19:13:44 0° 258° (WSW) 2,357 1.2 -29.7°
Reaches altitude 10° 19:15:49 10° 259° (W) 1,497 -0.1 -30.1°
Enters shadow 19:16:24 14° 260° (W) 1,259 -0.6 -30.2°
